Year,Month,Day,Hour,Minute,Value (Times are PST for temperature in C)
2018,08,05,00,00,16.20
2018,08,05,00,01,16.20
2018,08,05,00,02,16.20
2018,08,05,00,03,16.20
2018,08,05,00,04,16.20
2018,08,05,00,05,16.20
2018,08,05,00,06,16.20
2018,08,05,00,07,16.20
2018,08,05,00,08,16.20
2018,08,05,00,09,16.20
2018,08,05,00,10,16.20
2018,08,05,00,11,16.20
2018,08,05,00,12,16.20
2018,08,05,00,13,16.20
2018,08,05,00,14,16.20
2018,08,05,00,15,16.20
2018,08,05,00,16,16.10
2018,08,05,00,17,16.10
2018,08,05,00,18,16.10
2018,08,05,00,19,16.10
2018,08,05,00,20,16.10
2018,08,05,00,21,16.10
2018,08,05,00,22,16.00
2018,08,05,00,23,15.90
2018,08,05,00,24,15.90
2018,08,05,00,25,15.80
2018,08,05,00,26,15.80
2018,08,05,00,27,15.80
2018,08,05,00,28,15.70
2018,08,05,00,29,15.70
2018,08,05,00,30,15.70
2018,08,05,00,31,15.70
2018,08,05,00,32,15.70
2018,08,05,00,33,15.60
2018,08,05,00,34,15.60
2018,08,05,00,35,15.60
2018,08,05,00,36,15.60
2018,08,05,00,37,15.60
2018,08,05,00,38,15.50
2018,08,05,00,39,15.50
2018,08,05,00,40,15.50
2018,08,05,00,41,15.40
2018,08,05,00,42,15.40
2018,08,05,00,43,15.40
2018,08,05,00,44,15.40
2018,08,05,00,45,15.30
2018,08,05,00,46,15.30
2018,08,05,00,47,15.30
2018,08,05,00,48,15.20
2018,08,05,00,49,15.20
2018,08,05,00,50,15.20
2018,08,05,00,51,15.10
2018,08,05,00,52,15.10
2018,08,05,00,53,15.10
2018,08,05,00,54,15.00
2018,08,05,00,55,15.00
2018,08,05,00,56,15.00
2018,08,05,00,57,14.90
2018,08,05,00,58,14.90
2018,08,05,00,59,14.90
2018,08,05,01,00,14.90
2018,08,05,01,01,14.90
2018,08,05,01,02,14.90
2018,08,05,01,03,14.80
2018,08,05,01,04,14.80
2018,08,05,01,05,14.80
2018,08,05,01,06,14.80
2018,08,05,01,07,14.80
2018,08,05,01,08,14.80
2018,08,05,01,09,14.70
2018,08,05,01,10,14.70
2018,08,05,01,11,14.70
2018,08,05,01,12,14.60
2018,08,05,01,13,14.60
2018,08,05,01,14,14.60
2018,08,05,01,15,14.60
2018,08,05,01,16,14.50
2018,08,05,01,17,14.50
2018,08,05,01,18,14.50
2018,08,05,01,19,14.50
2018,08,05,01,20,14.40
2018,08,05,01,21,14.40
2018,08,05,01,22,14.40
2018,08,05,01,23,14.40
2018,08,05,01,24,14.40
2018,08,05,01,25,14.30
2018,08,05,01,26,14.30
2018,08,05,01,27,14.30
2018,08,05,01,28,14.30
2018,08,05,01,29,14.30
2018,08,05,01,30,14.30
2018,08,05,01,31,14.30
2018,08,05,01,32,14.30
2018,08,05,01,33,14.30
2018,08,05,01,34,14.30
2018,08,05,01,35,14.30
2018,08,05,01,36,14.20
2018,08,05,01,37,14.20
2018,08,05,01,38,14.20
2018,08,05,01,39,14.20
2018,08,05,01,40,14.20
2018,08,05,01,41,14.20
2018,08,05,01,42,14.10
2018,08,05,01,43,14.10
2018,08,05,01,44,14.10
2018,08,05,01,45,14.10
2018,08,05,01,46,14.10
2018,08,05,01,47,14.10
2018,08,05,01,48,14.10
2018,08,05,01,49,14.00
2018,08,05,01,50,14.00
2018,08,05,01,51,14.00
2018,08,05,01,52,13.90
2018,08,05,01,53,13.90
2018,08,05,01,54,13.90
2018,08,05,01,55,13.90
2018,08,05,01,56,13.90
2018,08,05,01,57,13.90
2018,08,05,01,58,13.80
2018,08,05,01,59,13.80
2018,08,05,02,00,13.80
2018,08,05,02,01,13.80
2018,08,05,02,02,13.80
2018,08,05,02,03,13.80
2018,08,05,02,04,13.80
2018,08,05,02,05,13.70
2018,08,05,02,06,13.70
2018,08,05,02,07,13.70
2018,08,05,02,08,13.70
2018,08,05,02,09,13.70
2018,08,05,02,10,13.70
2018,08,05,02,11,13.70
2018,08,05,02,12,13.70
2018,08,05,02,13,13.70
2018,08,05,02,14,13.70
2018,08,05,02,15,13.70
2018,08,05,02,16,13.70
2018,08,05,02,17,13.60
2018,08,05,02,18,13.60
2018,08,05,02,19,13.60
2018,08,05,02,20,13.60
2018,08,05,02,21,13.60
2018,08,05,02,22,13.60
2018,08,05,02,23,13.60
2018,08,05,02,24,13.50
2018,08,05,02,25,13.50
2018,08,05,02,26,13.50
2018,08,05,02,27,13.50
2018,08,05,02,28,13.50
2018,08,05,02,29,13.40
2018,08,05,02,30,13.40
2018,08,05,02,31,13.40
2018,08,05,02,32,13.40
2018,08,05,02,33,13.40
2018,08,05,02,34,13.40
2018,08,05,02,35,13.40
2018,08,05,02,36,13.40
2018,08,05,02,37,13.40
2018,08,05,02,38,13.40
2018,08,05,02,39,13.30
2018,08,05,02,40,13.30
2018,08,05,02,41,13.30
2018,08,05,02,42,13.30
2018,08,05,02,43,13.30
2018,08,05,02,44,13.30
2018,08,05,02,45,13.30
2018,08,05,02,46,13.30
2018,08,05,02,47,13.30
2018,08,05,02,48,13.30
2018,08,05,02,49,13.30
2018,08,05,02,50,13.30
2018,08,05,02,51,13.20
2018,08,05,02,52,13.20
2018,08,05,02,53,13.20
2018,08,05,02,54,13.20
2018,08,05,02,55,13.20
2018,08,05,02,56,13.20
2018,08,05,02,57,13.20
2018,08,05,02,58,13.20
2018,08,05,02,59,13.20
2018,08,05,03,00,13.20
2018,08,05,03,01,13.20
2018,08,05,03,02,13.10
2018,08,05,03,03,13.10
2018,08,05,03,04,13.10
2018,08,05,03,05,13.10
2018,08,05,03,06,13.10
2018,08,05,03,07,13.10
2018,08,05,03,08,13.10
2018,08,05,03,09,13.10
2018,08,05,03,10,13.10
2018,08,05,03,11,13.10
2018,08,05,03,12,13.10
2018,08,05,03,13,13.00
2018,08,05,03,14,13.00
2018,08,05,03,15,13.00
2018,08,05,03,16,13.00
2018,08,05,03,17,13.00
2018,08,05,03,18,13.00
2018,08,05,03,19,12.90
2018,08,05,03,20,12.90
2018,08,05,03,21,12.90
2018,08,05,03,22,12.90
2018,08,05,03,23,12.90
2018,08,05,03,24,12.90
2018,08,05,03,25,12.90
2018,08,05,03,26,12.90
2018,08,05,03,27,12.90
2018,08,05,03,28,12.90
2018,08,05,03,29,12.90
2018,08,05,03,30,12.80
2018,08,05,03,31,12.80
2018,08,05,03,32,12.80
2018,08,05,03,33,12.80
2018,08,05,03,34,12.80
2018,08,05,03,35,12.80
2018,08,05,03,36,12.80
2018,08,05,03,37,12.80
2018,08,05,03,38,12.80
2018,08,05,03,39,12.80
2018,08,05,03,40,12.70
2018,08,05,03,41,12.70
2018,08,05,03,42,12.70
2018,08,05,03,43,12.70
2018,08,05,03,44,12.70
2018,08,05,03,45,12.70
2018,08,05,03,46,12.70
2018,08,05,03,47,12.70
2018,08,05,03,48,12.70
2018,08,05,03,49,12.60
2018,08,05,03,50,12.60
2018,08,05,03,51,12.60
2018,08,05,03,52,12.60
2018,08,05,03,53,12.60
2018,08,05,03,54,12.60
2018,08,05,03,55,12.60
2018,08,05,03,56,12.60
2018,08,05,03,57,12.60
2018,08,05,03,58,12.60
2018,08,05,03,59,12.50
2018,08,05,04,00,12.50
2018,08,05,04,01,12.50
2018,08,05,04,02,12.50
2018,08,05,04,03,12.50
2018,08,05,04,04,12.40
2018,08,05,04,05,12.40
2018,08,05,04,06,12.40
2018,08,05,04,07,12.40
2018,08,05,04,08,12.40
2018,08,05,04,09,12.40
2018,08,05,04,10,12.40
2018,08,05,04,11,12.40
2018,08,05,04,12,12.40
2018,08,05,04,13,12.40
2018,08,05,04,14,12.40
2018,08,05,04,15,12.30
2018,08,05,04,16,12.30
2018,08,05,04,17,12.30
2018,08,05,04,18,12.30
2018,08,05,04,19,12.30
2018,08,05,04,20,12.30
2018,08,05,04,21,12.30
2018,08,05,04,22,12.30
2018,08,05,04,23,12.30
2018,08,05,04,24,12.30
2018,08,05,04,25,12.30
2018,08,05,04,26,12.30
2018,08,05,04,27,12.20
2018,08,05,04,28,12.20
2018,08,05,04,29,12.20
2018,08,05,04,30,12.20
2018,08,05,04,31,12.20
2018,08,05,04,32,12.20
2018,08,05,04,33,12.20
2018,08,05,04,34,12.20
2018,08,05,04,35,12.20
2018,08,05,04,36,12.20
2018,08,05,04,37,12.20
2018,08,05,04,38,12.20
2018,08,05,04,39,12.20
2018,08,05,04,40,12.20
2018,08,05,04,41,12.20
2018,08,05,04,42,12.20
2018,08,05,04,43,12.20
2018,08,05,04,44,12.20
2018,08,05,04,45,12.10
2018,08,05,04,46,12.10
2018,08,05,04,47,12.10
2018,08,05,04,48,12.10
2018,08,05,04,49,12.10
2018,08,05,04,50,12.10
2018,08,05,04,51,12.10
2018,08,05,04,52,12.10
2018,08,05,04,53,12.10
2018,08,05,04,54,12.10
2018,08,05,04,55,12.10
2018,08,05,04,56,12.10
2018,08,05,04,57,12.10
2018,08,05,04,58,12.00
2018,08,05,04,59,12.00
2018,08,05,05,00,12.00
2018,08,05,05,01,12.00
2018,08,05,05,02,12.00
2018,08,05,05,03,12.00
2018,08,05,05,04,12.00
2018,08,05,05,05,12.00
2018,08,05,05,06,12.00
2018,08,05,05,07,12.00
2018,08,05,05,08,11.90
2018,08,05,05,09,11.90
2018,08,05,05,10,11.90
2018,08,05,05,11,11.90
2018,08,05,05,12,11.90
2018,08,05,05,13,11.90
2018,08,05,05,14,11.90
2018,08,05,05,15,11.90
2018,08,05,05,16,11.90
2018,08,05,05,17,11.90
2018,08,05,05,18,11.90
2018,08,05,05,19,11.90
2018,08,05,05,20,11.80
2018,08,05,05,21,11.80
2018,08,05,05,22,11.80
2018,08,05,05,23,11.80
2018,08,05,05,24,11.80
2018,08,05,05,25,11.80
2018,08,05,05,26,11.80
2018,08,05,05,27,11.80
2018,08,05,05,28,11.80
2018,08,05,05,29,11.80
2018,08,05,05,30,11.80
2018,08,05,05,31,11.70
2018,08,05,05,32,11.70
2018,08,05,05,33,11.70
2018,08,05,05,34,11.70
2018,08,05,05,35,11.70
2018,08,05,05,36,11.70
2018,08,05,05,37,11.70
2018,08,05,05,38,11.70
2018,08,05,05,39,11.70
2018,08,05,05,40,11.60
2018,08,05,05,41,11.60
2018,08,05,05,42,11.60
2018,08,05,05,43,11.60
2018,08,05,05,44,11.60
2018,08,05,05,45,11.60
2018,08,05,05,46,11.60
2018,08,05,05,47,11.60
2018,08,05,05,48,11.60
2018,08,05,05,49,11.60
2018,08,05,05,50,11.60
2018,08,05,05,51,11.60
2018,08,05,05,52,11.60
2018,08,05,05,53,11.50
2018,08,05,05,54,11.50
2018,08,05,05,55,11.50
2018,08,05,05,56,11.50
2018,08,05,05,57,11.50
2018,08,05,05,58,11.40
2018,08,05,05,59,11.40
2018,08,05,06,00,11.40
2018,08,05,06,01,11.40
2018,08,05,06,02,11.40
2018,08,05,06,03,11.40
2018,08,05,06,04,11.40
2018,08,05,06,05,11.40
2018,08,05,06,06,11.40
2018,08,05,06,07,11.40
2018,08,05,06,08,11.40
2018,08,05,06,09,11.40
2018,08,05,06,10,11.40
2018,08,05,06,11,11.40
2018,08,05,06,12,11.40
2018,08,05,06,13,11.40
2018,08,05,06,14,11.40
2018,08,05,06,15,11.40
2018,08,05,06,16,11.40
2018,08,05,06,17,11.40
2018,08,05,06,18,11.40
2018,08,05,06,19,11.40
2018,08,05,06,20,11.40
2018,08,05,06,21,11.40
2018,08,05,06,22,11.40
2018,08,05,06,23,11.40
2018,08,05,06,24,11.40
2018,08,05,06,25,11.40
2018,08,05,06,26,11.40
2018,08,05,06,27,11.40
2018,08,05,06,28,11.40
2018,08,05,06,29,11.40
2018,08,05,06,30,11.40
2018,08,05,06,31,11.40
2018,08,05,06,32,11.40
2018,08,05,06,33,11.40
2018,08,05,06,34,11.40
2018,08,05,06,35,11.40
2018,08,05,06,36,11.40
2018,08,05,06,37,11.40
2018,08,05,06,38,11.40
2018,08,05,06,39,11.40
2018,08,05,06,40,11.40
2018,08,05,06,41,11.40
2018,08,05,06,42,11.40
2018,08,05,06,43,11.40
2018,08,05,06,44,11.50
2018,08,05,06,45,11.50
2018,08,05,06,46,11.50
2018,08,05,06,47,11.50
2018,08,05,06,48,11.50
2018,08,05,06,49,11.50
2018,08,05,06,50,11.50
2018,08,05,06,51,11.50
2018,08,05,06,52,11.50
2018,08,05,06,53,11.60
2018,08,05,06,54,11.60
2018,08,05,06,55,11.60
2018,08,05,06,56,11.60
2018,08,05,06,57,11.60
2018,08,05,06,58,11.60
2018,08,05,06,59,11.60
2018,08,05,07,00,11.60
2018,08,05,07,01,11.60
2018,08,05,07,02,11.60
2018,08,05,07,03,11.60
2018,08,05,07,04,11.60
2018,08,05,07,05,11.70
2018,08,05,07,06,11.70
2018,08,05,07,07,11.70
2018,08,05,07,08,11.70
2018,08,05,07,09,11.70
2018,08,05,07,10,11.70
2018,08,05,07,11,11.70
2018,08,05,07,12,11.70
2018,08,05,07,13,11.70
2018,08,05,07,14,11.70
2018,08,05,07,15,11.70
2018,08,05,07,16,11.80
2018,08,05,07,17,11.80
2018,08,05,07,18,11.80
2018,08,05,07,19,11.80
2018,08,05,07,20,11.80
2018,08,05,07,21,11.80
2018,08,05,07,22,11.80
2018,08,05,07,23,11.90
2018,08,05,07,24,11.90
2018,08,05,07,25,11.90
2018,08,05,07,26,12.00
2018,08,05,07,27,12.00
2018,08,05,07,28,12.10
2018,08,05,07,29,12.20
2018,08,05,07,30,12.20
2018,08,05,07,31,12.30
2018,08,05,07,32,12.40
2018,08,05,07,33,12.50
2018,08,05,07,34,12.60
2018,08,05,07,35,12.70
2018,08,05,07,36,12.80
2018,08,05,07,37,12.90
2018,08,05,07,38,13.00
2018,08,05,07,39,13.10
2018,08,05,07,40,13.20
2018,08,05,07,41,13.30
2018,08,05,07,42,13.40
2018,08,05,07,43,13.40
2018,08,05,07,44,13.50
2018,08,05,07,45,13.60
2018,08,05,07,46,13.70
2018,08,05,07,47,13.70
2018,08,05,07,48,13.80
2018,08,05,07,49,13.80
2018,08,05,07,50,13.90
2018,08,05,07,51,13.90
2018,08,05,07,52,14.00
2018,08,05,07,53,14.10
2018,08,05,07,54,14.20
2018,08,05,07,55,14.30
2018,08,05,07,56,14.40
2018,08,05,07,57,14.50
2018,08,05,07,58,14.60
2018,08,05,07,59,14.70
2018,08,05,08,00,14.80
2018,08,05,08,01,15.00
2018,08,05,08,02,15.00
2018,08,05,08,03,15.10
2018,08,05,08,04,15.20
2018,08,05,08,05,15.20
2018,08,05,08,06,15.30
2018,08,05,08,07,15.30
2018,08,05,08,08,15.30
2018,08,05,08,09,15.40
2018,08,05,08,10,15.50
2018,08,05,08,11,15.50
2018,08,05,08,12,15.60
2018,08,05,08,13,15.70
2018,08,05,08,14,15.70
2018,08,05,08,15,15.80
2018,08,05,08,16,15.80
2018,08,05,08,17,15.90
2018,08,05,08,18,15.90
2018,08,05,08,19,16.00
2018,08,05,08,20,16.00
2018,08,05,08,21,16.00
2018,08,05,08,22,16.10
2018,08,05,08,23,16.10
2018,08,05,08,24,16.20
2018,08,05,08,25,16.30
2018,08,05,08,26,16.30
2018,08,05,08,27,16.40
2018,08,05,08,28,16.50
2018,08,05,08,29,16.60
2018,08,05,08,30,16.60
2018,08,05,08,31,16.70
2018,08,05,08,32,16.70
2018,08,05,08,33,16.80
2018,08,05,08,34,16.80
2018,08,05,08,35,16.80
2018,08,05,08,36,16.80
2018,08,05,08,37,16.80
2018,08,05,08,38,16.90
2018,08,05,08,39,16.90
2018,08,05,08,40,16.90
2018,08,05,08,41,16.90
2018,08,05,08,42,16.80
2018,08,05,08,43,16.80
2018,08,05,08,44,16.80
2018,08,05,08,45,16.80
2018,08,05,08,46,16.80
2018,08,05,08,47,16.70
2018,08,05,08,48,16.70
2018,08,05,08,49,16.70
2018,08,05,08,50,16.70
2018,08,05,08,51,16.70
2018,08,05,08,52,16.70
2018,08,05,08,53,16.80
2018,08,05,08,54,16.90
2018,08,05,08,55,16.90
2018,08,05,08,56,17.00
2018,08,05,08,57,17.00
2018,08,05,08,58,17.10
2018,08,05,08,59,17.20
2018,08,05,09,00,17.30
2018,08,05,09,01,17.30
2018,08,05,09,02,17.40
2018,08,05,09,03,17.40
2018,08,05,09,04,17.50
2018,08,05,09,05,17.50
2018,08,05,09,06,17.60
2018,08,05,09,07,17.60
2018,08,05,09,08,17.70
2018,08,05,09,09,17.70
2018,08,05,09,10,17.80
2018,08,05,09,11,17.80
2018,08,05,09,12,17.80
2018,08,05,09,13,17.80
2018,08,05,09,14,17.90
2018,08,05,09,15,17.90
2018,08,05,09,16,17.90
2018,08,05,09,17,18.00
2018,08,05,09,18,18.00
2018,08,05,09,19,18.10
2018,08,05,09,20,18.20
2018,08,05,09,21,18.20
2018,08,05,09,22,18.30
2018,08,05,09,23,18.40
2018,08,05,09,24,18.40
2018,08,05,09,25,18.50
2018,08,05,09,26,18.60
2018,08,05,09,27,18.70
2018,08,05,09,28,18.80
2018,08,05,09,29,19.00
2018,08,05,09,30,19.10
2018,08,05,09,31,19.30
2018,08,05,09,32,19.40
2018,08,05,09,33,19.50
2018,08,05,09,34,19.70
2018,08,05,09,35,19.80
2018,08,05,09,36,19.80
2018,08,05,09,37,19.80
2018,08,05,09,38,19.90
2018,08,05,09,39,19.90
2018,08,05,09,40,20.00
2018,08,05,09,41,20.10
2018,08,05,09,42,20.20
2018,08,05,09,43,20.30
2018,08,05,09,44,20.50
2018,08,05,09,45,20.60
2018,08,05,09,46,20.60
2018,08,05,09,47,20.70
2018,08,05,09,48,20.70
2018,08,05,09,49,20.70
2018,08,05,09,50,20.70
2018,08,05,09,51,20.80
2018,08,05,09,52,20.80
2018,08,05,09,53,20.90
2018,08,05,09,54,21.00
2018,08,05,09,55,21.10
2018,08,05,09,56,21.20
2018,08,05,09,57,21.20
2018,08,05,09,58,21.20
2018,08,05,09,59,21.20
2018,08,05,10,00,21.20
2018,08,05,10,01,21.10
2018,08,05,10,02,21.10
2018,08,05,10,03,21.10
2018,08,05,10,04,21.10
2018,08,05,10,05,21.10
2018,08,05,10,06,21.10
2018,08,05,10,07,21.10
2018,08,05,10,08,21.20
2018,08,05,10,09,21.20
2018,08,05,10,10,21.20
2018,08,05,10,11,21.20
2018,08,05,10,12,21.20
2018,08,05,10,13,21.30
2018,08,05,10,14,21.30
2018,08,05,10,15,21.30
2018,08,05,10,16,21.40
2018,08,05,10,17,21.40
2018,08,05,10,18,21.40
2018,08,05,10,19,21.40
2018,08,05,10,20,21.40
2018,08,05,10,21,21.30
2018,08,05,10,22,21.40
2018,08,05,10,23,21.30
2018,08,05,10,24,21.30
2018,08,05,10,25,21.40
2018,08,05,10,26,21.40
2018,08,05,10,27,21.40
2018,08,05,10,28,21.50
2018,08,05,10,29,21.50
2018,08,05,10,30,21.60
2018,08,05,10,31,21.70
2018,08,05,10,32,21.70
2018,08,05,10,33,21.70
2018,08,05,10,34,21.70
2018,08,05,10,35,21.80
2018,08,05,10,36,21.80
2018,08,05,10,37,21.90
2018,08,05,10,38,21.90
2018,08,05,10,39,22.00
2018,08,05,10,40,22.00
2018,08,05,10,41,22.10
2018,08,05,10,42,22.20
2018,08,05,10,43,22.40
2018,08,05,10,44,22.50
2018,08,05,10,45,22.60
2018,08,05,10,46,22.70
2018,08,05,10,47,22.80
2018,08,05,10,48,23.00
2018,08,05,10,49,23.10
2018,08,05,10,50,23.20
2018,08,05,10,51,23.30
2018,08,05,10,52,23.30
2018,08,05,10,53,23.30
2018,08,05,10,54,23.30
2018,08,05,10,55,23.30
2018,08,05,10,56,23.30
2018,08,05,10,57,23.40
2018,08,05,10,58,23.40
2018,08,05,10,59,23.50
2018,08,05,11,00,23.50
2018,08,05,11,01,23.60
2018,08,05,11,02,23.70
2018,08,05,11,03,23.80
2018,08,05,11,04,23.90
2018,08,05,11,05,23.90
2018,08,05,11,06,24.00
2018,08,05,11,07,24.10
2018,08,05,11,08,24.10
2018,08,05,11,09,24.20
2018,08,05,11,10,24.20
2018,08,05,11,11,24.30
2018,08,05,11,12,24.30
2018,08,05,11,13,24.30
2018,08,05,11,14,24.30
2018,08,05,11,15,24.40
2018,08,05,11,16,24.40
2018,08,05,11,17,24.50
2018,08,05,11,18,24.50
2018,08,05,11,19,24.60
2018,08,05,11,20,24.50
2018,08,05,11,21,24.40
2018,08,05,11,22,24.40
2018,08,05,11,23,24.30
2018,08,05,11,24,24.30
2018,08,05,11,25,24.20
2018,08,05,11,26,24.20
2018,08,05,11,27,24.20
2018,08,05,11,28,24.20
2018,08,05,11,29,24.30
2018,08,05,11,30,24.30
2018,08,05,11,31,24.30
2018,08,05,11,32,24.30
2018,08,05,11,33,24.40
2018,08,05,11,34,24.40
2018,08,05,11,35,24.50
2018,08,05,11,36,24.60
2018,08,05,11,37,24.60
2018,08,05,11,38,24.70
2018,08,05,11,39,24.60
2018,08,05,11,40,24.60
2018,08,05,11,41,24.50
2018,08,05,11,42,24.50
2018,08,05,11,43,24.50
2018,08,05,11,44,24.50
2018,08,05,11,45,24.60
2018,08,05,11,46,24.50
2018,08,05,11,47,24.50
2018,08,05,11,48,24.40
2018,08,05,11,49,24.40
2018,08,05,11,50,24.30
2018,08,05,11,51,24.30
2018,08,05,11,52,24.30
2018,08,05,11,53,24.30
2018,08,05,11,54,24.20
2018,08,05,11,55,24.20
2018,08,05,11,56,24.10
2018,08,05,11,57,24.10
2018,08,05,11,58,24.10
2018,08,05,11,59,24.00
2018,08,05,12,00,24.10
2018,08,05,12,01,24.10
2018,08,05,12,02,24.10
2018,08,05,12,03,24.20
2018,08,05,12,04,24.20
2018,08,05,12,05,24.30
2018,08,05,12,06,24.40
2018,08,05,12,07,24.50
2018,08,05,12,08,24.60
2018,08,05,12,09,24.70
2018,08,05,12,10,24.70
2018,08,05,12,11,24.80
2018,08,05,12,12,24.80
2018,08,05,12,13,24.90
2018,08,05,12,14,25.00
2018,08,05,12,15,25.10
2018,08,05,12,16,25.20
2018,08,05,12,17,25.30
2018,08,05,12,18,25.50
2018,08,05,12,19,25.60
2018,08,05,12,20,25.70
2018,08,05,12,21,25.80
2018,08,05,12,22,25.90
2018,08,05,12,23,25.90
2018,08,05,12,24,26.00
2018,08,05,12,25,26.10
2018,08,05,12,26,26.10
2018,08,05,12,27,26.20
2018,08,05,12,28,26.20
2018,08,05,12,29,26.30
2018,08,05,12,30,26.30
2018,08,05,12,31,26.40
2018,08,05,12,32,26.40
2018,08,05,12,33,26.40
2018,08,05,12,34,26.50
2018,08,05,12,35,26.60
2018,08,05,12,36,26.70
2018,08,05,12,37,26.90
2018,08,05,12,38,27.00
2018,08,05,12,39,27.20
2018,08,05,12,40,27.30
2018,08,05,12,41,27.40
2018,08,05,12,42,27.40
2018,08,05,12,43,27.30
2018,08,05,12,44,27.30
2018,08,05,12,45,27.20
2018,08,05,12,46,27.10
2018,08,05,12,47,27.00
2018,08,05,12,48,26.90
2018,08,05,12,49,26.80
2018,08,05,12,50,26.80
2018,08,05,12,51,26.80
2018,08,05,12,52,26.80
2018,08,05,12,53,26.80
2018,08,05,12,54,26.70
2018,08,05,12,55,26.70
2018,08,05,12,56,26.70
2018,08,05,12,57,26.70
2018,08,05,12,58,26.70
2018,08,05,12,59,26.80
2018,08,05,13,00,26.80
2018,08,05,13,01,26.80
2018,08,05,13,02,26.70
2018,08,05,13,03,26.60
2018,08,05,13,04,26.60
2018,08,05,13,05,26.60
2018,08,05,13,06,26.50
2018,08,05,13,07,26.50
2018,08,05,13,08,26.50
2018,08,05,13,09,26.50
2018,08,05,13,10,26.60
2018,08,05,13,11,26.60
2018,08,05,13,12,26.60
2018,08,05,13,13,26.60
2018,08,05,13,14,26.60
2018,08,05,13,15,26.60
2018,08,05,13,16,26.60
2018,08,05,13,17,26.60
2018,08,05,13,18,26.60
2018,08,05,13,19,26.60
2018,08,05,13,20,26.60
2018,08,05,13,21,26.70
2018,08,05,13,22,26.70
2018,08,05,13,23,26.70
2018,08,05,13,24,26.70
2018,08,05,13,25,26.70
2018,08,05,13,26,26.60
2018,08,05,13,27,26.50
2018,08,05,13,28,26.50
2018,08,05,13,29,26.40
2018,08,05,13,30,26.40
2018,08,05,13,31,26.30
2018,08,05,13,32,26.30
2018,08,05,13,33,26.30
2018,08,05,13,34,26.30
2018,08,05,13,35,26.30
2018,08,05,13,36,26.30
2018,08,05,13,37,26.30
2018,08,05,13,38,26.30
2018,08,05,13,39,26.40
2018,08,05,13,40,26.50
2018,08,05,13,41,26.50
2018,08,05,13,42,26.60
2018,08,05,13,43,26.70
2018,08,05,13,44,26.80
2018,08,05,13,45,27.00
2018,08,05,13,46,27.10
2018,08,05,13,47,27.20
2018,08,05,13,48,27.30
2018,08,05,13,49,27.30
2018,08,05,13,50,27.50
2018,08,05,13,51,27.70
2018,08,05,13,52,27.90
2018,08,05,13,53,28.10
2018,08,05,13,54,28.20
2018,08,05,13,55,28.30
2018,08,05,13,56,28.30
2018,08,05,13,57,28.40
2018,08,05,13,58,28.50
2018,08,05,13,59,28.60
2018,08,05,14,00,28.60
2018,08,05,14,01,28.60
2018,08,05,14,02,28.60
2018,08,05,14,03,28.60
2018,08,05,14,04,28.60
2018,08,05,14,05,28.50
2018,08,05,14,06,28.50
2018,08,05,14,07,28.40
2018,08,05,14,08,28.40
2018,08,05,14,09,28.50
2018,08,05,14,10,28.60
2018,08,05,14,11,28.70
2018,08,05,14,12,28.80
2018,08,05,14,13,28.80
2018,08,05,14,14,28.80
2018,08,05,14,15,28.80
2018,08,05,14,16,28.70
2018,08,05,14,17,28.60
2018,08,05,14,18,28.50
2018,08,05,14,19,28.40
2018,08,05,14,20,28.40
2018,08,05,14,21,28.30
2018,08,05,14,22,28.30
2018,08,05,14,23,28.30
2018,08,05,14,24,28.40
2018,08,05,14,25,28.40
2018,08,05,14,26,28.50
2018,08,05,14,27,28.50
2018,08,05,14,28,28.50
2018,08,05,14,29,28.40
2018,08,05,14,30,28.40
2018,08,05,14,31,28.40
2018,08,05,14,32,28.30
2018,08,05,14,33,28.30
2018,08,05,14,34,28.30
2018,08,05,14,35,28.30
2018,08,05,14,36,28.30
2018,08,05,14,37,28.30
2018,08,05,14,38,28.30
2018,08,05,14,39,28.20
2018,08,05,14,40,28.20
2018,08,05,14,41,28.10
2018,08,05,14,42,28.10
2018,08,05,14,43,28.10
2018,08,05,14,44,28.00
2018,08,05,14,45,28.00
2018,08,05,14,46,27.90
2018,08,05,14,47,27.80
2018,08,05,14,48,27.80
2018,08,05,14,49,27.80
2018,08,05,14,50,27.80
2018,08,05,14,51,27.80
2018,08,05,14,52,27.80
2018,08,05,14,53,27.80
2018,08,05,14,54,27.80
2018,08,05,14,55,27.70
2018,08,05,14,56,27.60
2018,08,05,14,57,27.60
2018,08,05,14,58,27.50
2018,08,05,14,59,27.60
2018,08,05,15,00,27.60
2018,08,05,15,01,27.60
2018,08,05,15,02,27.60
2018,08,05,15,03,27.70
2018,08,05,15,04,27.70
2018,08,05,15,05,27.80
2018,08,05,15,06,27.80
2018,08,05,15,07,27.80
2018,08,05,15,08,27.70
2018,08,05,15,09,27.70
2018,08,05,15,10,27.70
2018,08,05,15,11,27.70
2018,08,05,15,12,27.70
2018,08,05,15,13,27.70
2018,08,05,15,14,27.70
2018,08,05,15,15,27.70
2018,08,05,15,16,27.70
2018,08,05,15,17,27.60
2018,08,05,15,18,27.60
2018,08,05,15,19,27.60
2018,08,05,15,20,27.70
2018,08,05,15,21,27.70
2018,08,05,15,22,27.80
2018,08,05,15,23,27.90
2018,08,05,15,24,27.90
2018,08,05,15,25,27.90
2018,08,05,15,26,27.90
2018,08,05,15,27,28.00
2018,08,05,15,28,28.00
2018,08,05,15,29,28.00
2018,08,05,15,30,28.10
2018,08,05,15,31,28.10
2018,08,05,15,32,28.10
2018,08,05,15,33,28.20
2018,08,05,15,34,28.30
2018,08,05,15,35,28.30
2018,08,05,15,36,28.30
2018,08,05,15,37,28.30
2018,08,05,15,38,28.30
2018,08,05,15,39,28.30
2018,08,05,15,40,28.20
2018,08,05,15,41,28.10
2018,08,05,15,42,28.20
2018,08,05,15,43,28.20
2018,08,05,15,44,28.20
2018,08,05,15,45,28.20
2018,08,05,15,46,28.20
2018,08,05,15,47,28.20
2018,08,05,15,48,28.10
2018,08,05,15,49,28.20
2018,08,05,15,50,28.10
2018,08,05,15,51,28.10
2018,08,05,15,52,28.10
2018,08,05,15,53,28.10
2018,08,05,15,54,28.10
2018,08,05,15,55,28.00
2018,08,05,15,56,28.10
2018,08,05,15,57,28.10
2018,08,05,15,58,28.20
2018,08,05,15,59,28.20
2018,08,05,16,00,28.10
2018,08,05,16,01,28.10
2018,08,05,16,02,28.10
2018,08,05,16,03,28.00
2018,08,05,16,04,28.00
2018,08,05,16,05,28.00
2018,08,05,16,06,28.10
2018,08,05,16,07,28.20
2018,08,05,16,08,28.20
2018,08,05,16,09,28.10
2018,08,05,16,10,28.10
2018,08,05,16,11,28.00
2018,08,05,16,12,28.00
2018,08,05,16,13,28.00
2018,08,05,16,14,28.00
2018,08,05,16,15,28.10
2018,08,05,16,16,28.10
2018,08,05,16,17,28.10
2018,08,05,16,18,28.10
2018,08,05,16,19,28.10
2018,08,05,16,20,28.10
2018,08,05,16,21,28.10
2018,08,05,16,22,28.00
2018,08,05,16,23,27.90
2018,08,05,16,24,27.80
2018,08,05,16,25,27.80
2018,08,05,16,26,27.80
2018,08,05,16,27,27.80
2018,08,05,16,28,27.80
2018,08,05,16,29,27.80
2018,08,05,16,30,27.80
2018,08,05,16,31,27.70
2018,08,05,16,32,27.60
2018,08,05,16,33,27.50
2018,08,05,16,34,27.40
2018,08,05,16,35,27.40
2018,08,05,16,36,27.40
2018,08,05,16,37,27.40
2018,08,05,16,38,27.40
2018,08,05,16,39,27.30
2018,08,05,16,40,27.30
2018,08,05,16,41,27.20
2018,08,05,16,42,27.20
2018,08,05,16,43,27.20
2018,08,05,16,44,27.20
2018,08,05,16,45,27.20
2018,08,05,16,46,27.20
2018,08,05,16,47,27.10
2018,08,05,16,48,27.00
2018,08,05,16,49,26.90
2018,08,05,16,50,26.90
2018,08,05,16,51,26.90
2018,08,05,16,52,26.90
2018,08,05,16,53,26.90
2018,08,05,16,54,26.90
2018,08,05,16,55,27.00
2018,08,05,16,56,27.00
2018,08,05,16,57,26.90
2018,08,05,16,58,27.00
2018,08,05,16,59,27.00
2018,08,05,17,00,27.00
2018,08,05,17,01,27.00
2018,08,05,17,02,27.00
2018,08,05,17,03,27.00
2018,08,05,17,04,27.00
2018,08,05,17,05,27.00
2018,08,05,17,06,27.00
2018,08,05,17,07,27.00
2018,08,05,17,08,27.00
2018,08,05,17,09,26.90
2018,08,05,17,10,26.90
2018,08,05,17,11,26.90
2018,08,05,17,12,26.90
2018,08,05,17,13,26.90
2018,08,05,17,14,26.90
2018,08,05,17,15,26.80
2018,08,05,17,16,26.80
2018,08,05,17,17,26.80
2018,08,05,17,18,26.80
2018,08,05,17,19,26.70